Simultaneous Nadir Overpasses (SNOs) Predictions

Prediction of SNOs between NOAA-20 and AQUA Satellite Orbit:

Table of predicted SNOs for the next 14.0 days since TLE Epoch: 11/2/2018
Index Date (NOAA-20) Time (NOAA-20) Lat,Lon (NOAA-20) SZA (NOAA-20 ) Date (AQUA) Time (AQUA) Lat,Lon (AQUA) SZA (AQUA ) Distance(km) Time Diff (sec)
1 11/04/2018 22:12:54 75.57, 84.33 112.00 11/04/2018 22:13:32 75.57, 84.38 111.95 1.60 38
2 11/04/2018 23:03:16 -76.65,-104.60 69.23 11/04/2018 23:02:38 -76.65,-104.59 69.20 0.41 38
3 11/07/2018 14:29:35 76.16,-157.92 112.11 11/07/2018 14:29:47 76.15,-157.98 112.12 1.60 12
4 11/07/2018 15:20:07 -76.78, 11.67 68.59 11/07/2018 15:19:02 -76.79, 11.78 68.56 2.95 65
5 11/10/2018 05:56:05 -75.27, 147.65 66.15 11/10/2018 05:57:08 -75.27, 147.65 66.21 0.24 63
6 11/10/2018 06:46:26 76.33, -41.53 112.68 11/10/2018 06:46:11 76.34, -41.50 112.68 0.83 15
7 11/12/2018 22:12:55 -75.49, -95.89 65.67 11/12/2018 22:13:31 -75.50, -95.81 65.72 2.37 36
8 11/12/2018 23:03:17 76.50, 74.87 113.21 11/12/2018 23:02:35 76.52, 74.97 113.22 2.98 42
9 11/15/2018 14:29:35 -76.17, 22.14 65.73 11/15/2018 14:29:45 -76.17, 22.08 65.72 1.76 10




NCC Satellite Simultaneous Nadir Overpasses (SNOs) Prediction Service
